Miscellaneous Local Product
Issued by NWS Hastings, NE

Home | Current Version | Previous Version | Graphics & Text | Print | Product List | Glossary On
Versions: 1 2 3 4 5 6 7 8 9 10 11 12 13 14 15 16 17 18 19 20 21 22 23 24 25 26 27 28 29 30 31 32 33 34 35 36 37 38 39 40 41 42 43 44 45 46 47 48 49 50
000
AXUS43 KGID 222102
MISGRI

GID CWA HOURLY WEATHER ROUNDUP
NATIONAL WEATHER SERVICE HASTINGS NE
400 PM CDT SUN APR 22 2018

NOTE: "FAIR" INDICATES FEW OR NO CLOUDS BELOW 12,000 FEET WITH NO
SIGNIFICANT WEATHER AND/OR OBSTRUCTIONS TO VISIBILITY.

...SOUTH CENTRAL NEBRASKA...

CITY           SKY/WX    TMP DP  RH WIND       PRES   REMARKS
GRAND ISLAND   SUNNY     65  36  34 E7        30.16F
KEARNEY        SUNNY     60  36  40 NE7       30.18F
HASTINGS       SUNNY     64  37  36 N8G16     30.16F
ORD            SUNNY     63  31  30 E6        30.16F
YORK             N/A     66  34  30 E7G16     30.15F
AURORA         SUNNY     66  33  29 E12G17    30.15F
LEXINGTON      MOSUNNY   59  39  47 S5        30.18F
HOLDREGE       SUNNY     59  39  47 NE8       30.17F
HEBRON         CLOUDY    60  36  40 E12       30.15F

...NEBRASKA PANHANDLE...

CITY           SKY/WX    TMP DP  RH WIND       PRES   REMARKS
CHADRON        SUNNY     64  36  35 SE7       30.08F
ALLIANCE       MOSUNNY   59  39  47 SE6       30.11F
SCOTTSBLUFF    SUNNY     61  42  49 VRB5      30.12F
SIDNEY         SUNNY     57  29  34 VRB5      30.14F

...WESTERN AND NORTH CENTRAL NEBRASKA...

CITY           SKY/WX    TMP DP  RH WIND       PRES   REMARKS
VALENTINE      PTSUNNY   60  37  42 SE14      30.15F
AINSWORTH      MOSUNNY   59  39  48 S12G17    30.17F
ONEILL         SUNNY     64  29  27 S7        30.19F
BROKEN BOW     SUNNY     58  38  47 VRB5      30.18F
IMPERIAL       PTSUNNY   52  35  52 CALM      30.19F
NORTH PLATTE   CLOUDY    56  39  53 W6        30.18F
MCCOOK         FAIR      59  39  47 MISG      30.17F

...EASTERN NEBRASKA...

CITY           SKY/WX    TMP DP  RH WIND       PRES   REMARKS
NORFOLK        SUNNY     65  31  28 E6        30.17F
SO SIOUX CITY  SUNNY     66  30  26 E9G18     30.18F
TEKAMAH        CLOUDY    68  30  24 E10       30.16F
COLUMBUS       SUNNY     67  33  28 E7        30.16F
ALBION         MOSUNNY   65  34  31 SE7       30.17F
OMAHA EPPLEY   CLOUDY    70  31  23 E14       30.15F
OFFUTT AFB     CLOUDY    69  33  26 E10G18    30.14F
MILLARD        CLOUDY    69  35  28 NE5       30.15F
LINCOLN        CLOUDY    67  32  27 E9        30.16F
NEBRASKA CITY  PTSUNNY   69  37  31 N10G18    30.12F
BEATRICE       CLOUDY    64  36  36 NE7       30.15S
FALLS CITY     PTSUNNY   69  40  34 NE13G22   30.10F

...NORTHERN KANSAS...

CITY           SKY/WX    TMP DP  RH WIND       PRES   REMARKS
GOODLAND       CLOUDY    55  37  50 VRB6      30.17F
HILL CITY      MOSUNNY   60  40  47 NE7       30.17F
NORTON         PTCLDY    59  37  44 N3        30.16F
PHILLIPSBURG   SUNNY     64  36  34 NE3       30.16F
SMITH CENTER   SUNNY     66  34  30 NE14G21   30.15F
BELOIT         CLOUDY    57  39  51 NE12      30.14F
HAYS           SUNNY     64  37  36 NE8G18    30.13F
RUSSELL        SUNNY     64  37  36 NE17G23   30.12F
CONCORDIA      CLOUDY    57  36  45 NE10      30.14F
SALINA         CLOUDY    60  40  47 N20       30.13F
TOPEKA         PTSUNNY   68  49  50 E17G24    30.06F



USA.gov is the U.S. government's official web portal to all federal, state and local government web resources and services.